Other Public Products
Issued by NWS Charleston, SC

Current Version | Previous Version | Graphics & Text | Print | Product List | Glossary On
Versions: 1 2 3 4 5 6 7 8 9 10 11 12 13 14 15 16 17 18 19 20 21 22 23 24 25 26 27 28 29 30 31 32 33 34 35 36 37 38 39 40 41 42 43 44 45 46 47 48 49 50
000
FPUS82 KCHS 271312
OPUCHS

TEST...KCHS/KSAV Gateway Observations...TEST
National Weather Service Charleston SC
900 AM EDT THU JUL 27 2017

NOTE: "fair" indicates few or no clouds below 12,000 feet with no
significant weather and/or obstructions to visibility.

SCZ050-WAZ558-NCZ071-TXZ119-213-PAZ071-DCZ001-FLZ074-172-MI076-
NYZ176-178-MAZ016-IL014-TNZ027-NJZ106-GAZ044-MD014-271400-

...Gateway Observations for Charleston International...

CITY           SKY/WX    TMP DP  RH WIND       PRES   REMARKS
Chas Airport   MOSUNNY   80  76  87 S6        30.07R
Seattle        CLOUDY    58  54  86 SW6       30.14R
Charlotte      CLOUDY    77  74  90 S9        30.10S
Dallas DFW     MOSUNNY   82  72  71 SW12      30.01R
Dallas Love    MOSUNNY   83  72  69 SW5       30.02R
Philladelphia  CLOUDY    72  65  78 S7        30.05F
Wash National  PTSUNNY   76  70  82 S10       30.04S
Baltimore      CLOUDY    74  69  85 SW10      30.03R
Miami          MOSUNNY   86  76  71 SE14      30.02S HX  96
Detroit        CLOUDY    74  67  78 CALM      29.95F
Newark         CLOUDY    73  62  68 SW9       30.05F
Laguardia      PTSUNNY   72  62  71 SW8       30.04F
J F K          PTSUNNY   73  65  75 SW8       30.06F
Boston Logan   NOT AVBL
Ft. Lauderdale MOSUNNY   86  76  71 SE13      30.01R HX  96
Chicago O`Hare PTSUNNY   77  69  76 N8        29.93S
Chicago Midway PTSUNNY   76  71  85 NW6       29.93R
Houston Bush   MOSUNNY   82  77  84 CALM      30.05R HX  90
Houston Hobby  MOSUNNY   82  75  79 CALM      30.04S
Nashville      PTSUNNY   81  74  79 CALM      30.04R
Atlanta        PTSUNNY   76  72  87 CALM      30.11R

$$

GAZ044-118-TXZ119-213-NCZ071-DCZ001-MDZ014-506-PAZ021-071-NJZ106-
NYZ176-178-MAZ106-OHZ011-021-055-MIZ076-KYZ091-ILZ014-INZ047-
MNZ060-ONZ431-271400-

...Gateway Observations for Savannah International...

CITY           SKY/WX    TMP DP  RH WIND       PRES   REMARKS
Savannah Arpt  CLOUDY    76  72  87 SE10      30.05R
Atlanta        PTSUNNY   76  72  87 CALM      30.11R
Charlotte      CLOUDY    77  74  90 S9        30.10S
Dallas DFW     MOSUNNY   82  72  71 SW12      30.01R
Houston Bush   MOSUNNY   82  77  84 CALM      30.05R HX  90
Wash National  PTSUNNY   76  70  82 S10       30.04S
Wash Dulles    CLOUDY    72  67  84 S8        30.03S
Baltimore      CLOUDY    74  69  85 SW10      30.03R
Philadelphia   CLOUDY    72  65  78 S7        30.05F
Newark         CLOUDY    73  62  68 SW9       30.05F
Laguardia      PTSUNNY   72  62  71 SW8       30.04F
J F K          PTSUNNY   73  65  75 SW8       30.06F
Boston         NOT AVBL
Pittsburg      CLOUDY    70  64  81 CALM      30.00F
Akron          PTSUNNY   72  63  73 S6        30.00S
Cleveland      CLOUDY    72  65  78 CALM      29.99F
Cincinnati     CLOUDY    75  75 100 CALM      29.98S
Columbus       CLOUDY    71  66  84 SE3       29.96F
Detroit        CLOUDY    74  67  78 CALM      29.95F
Chicago O`Hare PTSUNNY   77  69  76 N8        29.93S
Minneapolis    SUNNY     71  61  70 CALM      30.07R
Indianapolis   LGT RAIN  74  73  97 SW9       29.96S
Toronto Canada LGT RAIN  68  64  88 NW6       29.96

$$




USA.gov is the U.S. government's official web portal to all federal, state and local government web resources and services.